Weather in Makushino

Russia / Kurgan Oblast     55°12′18″N   67°14′54″E
temp.,
°C
wind,
m/s
gust,
m/s
humid.,
%
clouds,
%
prec.,
mm/h
press.,
hPa
HPBL,
m
12 august, fri
fri1223:00+20sse22651 0.0 101517
02:00+18sw347185 0.0 101464
05:00+16nw359296 0.4 101497
08:00+17nw4796100 0.5 1015419
11:00+19wnw576788 0.9 1015974
14:00+22wnw784632 0.0 10141993
17:00+21nw795039 0.0 10141777
20:00+19wnw4855100 0.0 1013263
13 august, sat
sat1323:00+16w486171 0.0 1013139
02:00+17w4105599 0.0 1012293
05:00+14w487098 0.0 1012146
08:00+17w51065100 0.0 1012431
11:00+22w710515 0.0 10111340
14:00+24wnw91245100 0.0 10102330
17:00+23nw71144100 0.0 10101321
20:00+19w38554 0.0 1011207
14 august, sun
sun1423:00+18nw51157100 0.0 1012415
02:00+13nnw35731 0.0 101476
05:00+11nw36812 0.0 1015109
08:00+15nnw35610 0.0 1017383
11:00+19nw57412 0.0 10171884
14:00+21nw673612 0.0 10162437
17:00+21nnw563612 0.0 10172278
20:00+15n475791 0.0 1018126
15 august, mon
mon1523:00+13ne115896 0.0 101811
02:00+15w1151100 0.0 101811
05:00+14nnw245567 0.0 1019100
08:00+15nnw115683 0.0 1020156
11:00+19nw344397 0.0 10191322
14:00+21nnw353895 0.0 10192267
17:00+18n364998 0.0 1019285
20:00+16nne2452100 0.0 102090
16 august, tue
tue1623:00+15n2254100 0.0 102031
02:00+13n36585 0.0 1021154
05:00+9nne347759 0.0 102257
08:00+13nne57565 0.0 1023469
11:00+16n5739100 0.0 10222144
14:00+17n573999 0.0 10222275
17:00+18nnw3642100 0.0 10211693
20:00+16wsw3547100 0.0 1020112